Location: Madrid
(40.4000°N, 3.6830°W)
Time: 20:57:15
(UTC+01:00)

ISS - Pass Details

Date: 28 February 2021
Orbit: 417 x 422 km, 51.6° (Epoch: 26 February)

Event Time Altitude Azimuth Distance (km) Brightness Sun altitude
Exits shadow 07:12:28 - 312° (NW) 1,853 -1.0 -7.9°
Reaches altitude 10° 07:14:00 10° 332° (NNW) 1,498 -1.3 -7.6°
Maximum altitude 07:15:28 12° 357° (N) 1,368 -1.2 -7.3°
Drops below altitude 10° 07:16:56 10° 23° (NNE) 1,499 -0.7 -7.0°
Sets 07:20:05 0° 56° (NE) 2,364 1.0 -6.4°
